{"data":{"norad_id":63769,"epoch":"2026-05-24T17:07:49.963008Z","epoch_age_seconds":99933,"freshness":"FRESH","line1":"1 63769U 25089U   26144.71377272  .00014252  00000+0  52629-3 0  9998","line2":"2 63769  43.0051 335.9588 0001503 251.3258 108.7431 15.27588230 60531","mean_motion":15.2758823,"eccentricity":0.0001503,"inclination_deg":43.0051,"raan_deg":335.9588,"arg_perigee_deg":251.3258,"mean_anomaly_deg":108.7431,"bstar":0.00052629,"rev_number":6053,"period_min":94.266240844236,"perigee_km":481.99322000325,"apogee_km":484.05568513589,"semimajor_km":6861.1614525696,"source":"CELESTRAK","updated_at":"2026-05-25T13:38:20.106929Z"}}